Time,TemperatureF,DewpointF,PressureIn,WindDirection,WindDirectionDegrees,WindSpeedMPH,WindSpeedGustMPH,Humidity,HourlyPrecipIn,Conditions,Clouds,dailyrainin,SoftwareType,DateUTC
2013-05-08 00:04:00,59.5,41.4,29.17,East,90,0.0,0.0,51,0.00,,---,0.00,VWS V14.01,2013-05-08 05:04:00,
2013-05-08 00:09:00,59.2,41.1,29.17,East,90,0.0,0.0,51,0.00,,---,0.00,VWS V14.01,2013-05-08 05:09:00,
2013-05-08 00:14:00,59.2,41.1,29.17,East,90,0.0,0.0,51,0.00,,---,0.00,VWS V14.01,2013-05-08 05:14:00,
2013-05-08 00:19:00,59.2,41.1,29.17,SE,135,0.0,0.0,51,0.00,,---,0.00,VWS V14.01,2013-05-08 05:19:00,
2013-05-08 00:24:00,59.2,41.6,29.17,ESE,112,1.3,1.3,52,0.00,,---,0.00,VWS V14.01,2013-05-08 05:24:00,
2013-05-08 00:29:00,59.0,41.9,29.17,SE,135,0.0,0.0,53,0.00,,---,0.00,VWS V14.01,2013-05-08 05:29:00,
2013-05-08 00:34:00,59.0,41.9,29.17,SE,135,2.2,2.2,53,0.00,,---,0.00,VWS V14.01,2013-05-08 05:34:00,
2013-05-08 00:39:00,59.0,41.9,29.17,SE,135,2.0,2.0,53,0.00,,---,0.00,VWS V14.01,2013-05-08 05:39:00,
2013-05-08 00:44:00,59.0,42.4,29.17,South,180,2.7,2.7,54,0.00,,---,0.00,VWS V14.01,2013-05-08 05:44:00,
2013-05-08 00:49:00,59.0,42.4,29.17,SE,135,0.9,1.1,54,0.00,,---,0.00,VWS V14.01,2013-05-08 05:49:00,
2013-05-08 00:55:00,59.2,42.6,29.17,ESE,112,0.0,0.0,54,0.00,,---,0.00,VWS V14.01,2013-05-08 05:55:00,
2013-05-08 01:00:00,59.0,42.4,29.17,SE,135,0.0,0.0,54,0.00,,---,0.00,VWS V14.01,2013-05-08 06:00:00,
2013-05-08 01:05:00,59.0,42.4,29.17,East,90,0.0,0.0,54,0.00,,---,0.00,VWS V14.01,2013-05-08 06:05:00,
2013-05-08 01:10:00,59.0,42.4,29.17,ESE,112,0.0,0.0,54,0.00,,---,0.00,VWS V14.01,2013-05-08 06:10:00,
2013-05-08 01:15:00,59.0,42.9,29.17,SE,135,0.0,0.0,55,0.00,,---,0.00,VWS V14.01,2013-05-08 06:15:00,
2013-05-08 01:20:00,58.8,42.7,29.17,SE,135,0.0,0.0,55,0.00,,---,0.00,VWS V14.01,2013-05-08 06:20:00,
2013-05-08 01:25:00,58.8,43.2,29.17,SSE,158,0.0,0.0,56,0.00,,---,0.00,VWS V14.01,2013-05-08 06:25:00,
2013-05-08 01:30:00,58.8,43.2,29.17,SE,135,0.0,0.0,56,0.00,,---,0.00,VWS V14.01,2013-05-08 06:30:00,
2013-05-08 01:35:00,58.8,43.6,29.17,East,90,0.0,0.0,57,0.00,,---,0.00,VWS V14.01,2013-05-08 06:35:00,
2013-05-08 01:40:00,58.6,43.5,29.17,ESE,112,0.0,0.0,57,0.00,,---,0.00,VWS V14.01,2013-05-08 06:40:00,
2013-05-08 01:45:00,58.5,43.3,29.17,SE,135,0.0,0.0,57,0.00,,---,0.00,VWS V14.01,2013-05-08 06:45:00,
2013-05-08 01:51:00,58.5,43.8,29.17,SE,135,0.0,0.0,58,0.00,,---,0.00,VWS V14.01,2013-05-08 06:51:00,
2013-05-08 01:56:00,58.3,43.6,29.17,SE,135,0.0,0.0,58,0.00,,---,0.00,VWS V14.01,2013-05-08 06:56:00,
2013-05-08 02:01:00,58.1,43.9,29.17,ESE,112,0.0,0.0,59,0.00,,---,0.00,VWS V14.01,2013-05-08 07:01:00,
2013-05-08 02:06:00,57.9,43.7,29.17,SE,135,0.0,0.0,59,0.00,,---,0.00,VWS V14.01,2013-05-08 07:06:00,
2013-05-08 02:11:00,57.9,44.1,29.17,SE,135,0.0,0.0,60,0.00,,---,0.00,VWS V14.01,2013-05-08 07:11:00,
2013-05-08 02:16:00,57.9,44.1,29.17,SE,135,0.0,0.0,60,0.00,,---,0.00,VWS V14.01,2013-05-08 07:16:00,
2013-05-08 02:21:00,57.7,44.4,29.17,SSE,158,0.0,0.0,61,0.00,,---,0.00,VWS V14.01,2013-05-08 07:21:00,
2013-05-08 02:26:00,57.6,44.2,29.17,SE,135,0.0,0.0,61,0.00,,---,0.00,VWS V14.01,2013-05-08 07:26:00,
2013-05-08 02:31:00,57.6,44.2,29.17,ESE,112,0.0,0.0,61,0.00,,---,0.00,VWS V14.01,2013-05-08 07:31:00,
2013-05-08 02:36:00,57.6,44.7,29.17,SE,135,0.0,0.0,62,0.00,,---,0.00,VWS V14.01,2013-05-08 07:36:00,
2013-05-08 02:41:00,57.4,44.5,29.17,SE,135,0.0,0.0,62,0.00,,---,0.00,VWS V14.01,2013-05-08 07:41:00,
2013-05-08 02:47:00,57.2,44.7,29.17,SE,135,0.0,0.0,63,0.00,,---,0.00,VWS V14.01,2013-05-08 07:47:00,
2013-05-08 02:52:00,57.2,44.7,29.14,SE,135,0.0,0.0,63,0.00,,---,0.00,VWS V14.01,2013-05-08 07:52:00,
2013-05-08 02:57:00,57.0,45.0,29.14,SE,135,0.0,0.0,64,0.00,,---,0.00,VWS V14.01,2013-05-08 07:57:00,
2013-05-08 03:02:00,56.8,45.2,29.14,ESE,112,0.0,0.0,65,0.00,,---,0.00,VWS V14.01,2013-05-08 08:02:00,
2013-05-08 03:07:00,56.8,45.2,29.14,ESE,112,0.0,0.0,65,0.00,,---,0.00,VWS V14.01,2013-05-08 08:07:00,
2013-05-08 03:12:00,56.8,45.2,29.17,East,90,0.0,0.0,65,0.00,,---,0.00,VWS V14.01,2013-05-08 08:12:00,
2013-05-08 03:17:00,56.8,45.2,29.17,SSE,158,0.0,0.0,65,0.00,,---,0.00,VWS V14.01,2013-05-08 08:17:00,
2013-05-08 03:22:00,56.8,45.6,29.17,SE,135,0.0,0.0,66,0.00,,---,0.00,VWS V14.01,2013-05-08 08:22:00,
2013-05-08 03:27:00,56.7,45.0,29.17,ESE,112,0.0,0.0,65,0.00,,---,0.00,VWS V14.01,2013-05-08 08:27:00,
2013-05-08 03:32:00,56.8,45.2,29.17,SE,135,0.0,0.0,65,0.00,,---,0.00,VWS V14.01,2013-05-08 08:32:00,
2013-05-08 03:37:00,56.8,45.6,29.17,ESE,112,0.0,0.0,66,0.00,,---,0.00,VWS V14.01,2013-05-08 08:37:00,
2013-05-08 03:42:00,56.7,45.4,29.17,SE,135,0.0,0.0,66,0.00,,---,0.00,VWS V14.01,2013-05-08 08:42:00,
2013-05-08 03:48:00,56.7,45.4,29.17,ESE,112,0.0,0.0,66,0.00,,---,0.00,VWS V14.01,2013-05-08 08:48:00,
2013-05-08 03:53:00,56.5,45.3,29.17,SE,135,0.0,0.0,66,0.00,,---,0.00,VWS V14.01,2013-05-08 08:53:00,
2013-05-08 03:58:00,56.5,45.3,29.17,SE,135,0.0,0.0,66,0.00,,---,0.00,VWS V14.01,2013-05-08 08:58:00,
2013-05-08 04:03:00,56.5,45.7,29.17,SE,135,0.0,0.0,67,0.00,,---,0.00,VWS V14.01,2013-05-08 09:03:00,
2013-05-08 04:08:00,56.3,45.1,29.17,ESE,112,0.0,0.0,66,0.00,,---,0.00,VWS V14.01,2013-05-08 09:08:00,
2013-05-08 04:13:00,56.3,45.5,29.17,ESE,112,0.0,0.0,67,0.00,,---,0.00,VWS V14.01,2013-05-08 09:13:00,
2013-05-08 04:18:00,56.1,45.3,29.17,East,90,0.0,0.0,67,0.00,,---,0.00,VWS V14.01,2013-05-08 09:18:00,
2013-05-08 04:23:00,56.1,45.3,29.17,SSE,158,0.0,0.0,67,0.00,,---,0.00,VWS V14.01,2013-05-08 09:23:00,
2013-05-08 04:28:00,55.9,45.2,29.17,SSE,158,0.0,0.0,67,0.00,,---,0.00,VWS V14.01,2013-05-08 09:28:00,
2013-05-08 04:33:00,55.9,45.5,29.17,ESE,112,0.0,0.0,68,0.00,,---,0.00,VWS V14.01,2013-05-08 09:33:00,
2013-05-08 04:38:00,55.8,45.4,29.17,SE,135,0.0,0.0,68,0.00,,---,0.00,VWS V14.01,2013-05-08 09:38:00,
2013-05-08 04:43:00,55.8,45.4,29.17,SE,135,0.0,0.0,68,0.00,,---,0.00,VWS V14.01,2013-05-08 09:43:00,
2013-05-08 04:48:00,55.6,45.2,29.17,SE,135,0.0,0.0,68,0.00,,---,0.00,VWS V14.01,2013-05-08 09:48:00,
2013-05-08 04:53:00,55.4,45.4,29.17,East,90,0.0,0.0,69,0.00,,---,0.00,VWS V14.01,2013-05-08 09:53:00,
2013-05-08 04:58:00,55.2,45.2,29.17,East,90,0.0,0.0,69,0.00,,---,0.00,VWS V14.01,2013-05-08 09:58:00,
2013-05-08 05:03:00,55.0,45.1,29.17,East,90,0.0,0.0,69,0.00,,---,0.00,VWS V14.01,2013-05-08 10:03:00,
2013-05-08 05:08:00,54.9,45.3,29.17,East,90,0.0,0.0,70,0.00,,---,0.00,VWS V14.01,2013-05-08 10:08:00,
2013-05-08 05:13:00,54.7,45.1,29.17,East,90,0.0,0.0,70,0.00,,---,0.00,VWS V14.01,2013-05-08 10:13:00,
2013-05-08 05:18:00,54.7,45.1,29.17,West,270,0.0,0.0,70,0.00,,---,0.00,VWS V14.01,2013-05-08 10:18:00,
2013-05-08 05:23:00,54.5,44.9,29.17,West,270,0.0,0.0,70,0.00,,---,0.00,VWS V14.01,2013-05-08 10:23:00,
2013-05-08 05:28:00,54.5,44.9,29.17,West,270,0.0,0.0,70,0.00,,---,0.00,VWS V14.01,2013-05-08 10:28:00,
2013-05-08 05:33:00,54.1,45.0,29.17,West,270,0.0,0.0,71,0.00,,---,0.00,VWS V14.01,2013-05-08 10:33:00,
2013-05-08 05:38:00,54.1,45.3,29.17,West,270,0.0,0.0,72,0.00,,---,0.00,VWS V14.01,2013-05-08 10:38:00,
2013-05-08 05:43:00,54.0,45.2,29.17,West,270,0.0,0.0,72,0.00,,---,0.00,VWS V14.01,2013-05-08 10:43:00,
2013-05-08 05:48:00,53.8,45.0,29.17,West,270,0.0,0.0,72,0.00,,---,0.00,VWS V14.01,2013-05-08 10:48:00,
2013-05-08 05:53:00,53.8,45.3,29.17,West,270,0.0,0.0,73,0.00,,---,0.00,VWS V14.01,2013-05-08 10:53:00,
2013-05-08 05:58:00,53.6,45.2,29.17,West,270,0.0,0.0,73,0.00,,---,0.00,VWS V14.01,2013-05-08 10:58:00,
2013-05-08 06:03:00,53.6,45.2,29.17,West,270,0.0,0.0,73,0.00,,---,0.00,VWS V14.01,2013-05-08 11:03:00,
2013-05-08 06:08:00,53.6,45.2,29.17,West,270,0.0,0.0,73,0.00,,---,0.00,VWS V14.01,2013-05-08 11:08:00,
2013-05-08 06:13:00,53.4,45.3,29.17,West,270,0.0,0.0,74,0.00,,---,0.00,VWS V14.01,2013-05-08 11:13:00,
2013-05-08 06:18:00,53.6,45.2,29.20,West,270,0.0,0.0,73,0.00,,---,0.00,VWS V14.01,2013-05-08 11:18:00,
2013-05-08 06:23:00,53.6,45.2,29.20,West,270,0.0,0.0,73,0.00,,---,0.00,VWS V14.01,2013-05-08 11:23:00,
2013-05-08 06:28:00,53.6,45.2,29.20,West,270,0.0,0.0,73,0.00,,---,0.00,VWS V14.01,2013-05-08 11:28:00,
2013-05-08 06:33:00,54.0,45.5,29.20,West,270,0.0,0.0,73,0.00,,---,0.00,VWS V14.01,2013-05-08 11:33:00,
2013-05-08 06:38:00,54.5,46.4,29.20,West,270,0.0,0.0,74,0.00,,---,0.00,VWS V14.01,2013-05-08 11:38:00,
2013-05-08 06:43:00,55.6,47.1,29.20,West,270,0.0,0.0,73,0.00,,---,0.00,VWS V14.01,2013-05-08 11:43:00,
2013-05-08 06:48:00,56.5,47.9,29.20,West,270,0.0,0.0,73,0.00,,---,0.00,VWS V14.01,2013-05-08 11:48:00,
2013-05-08 06:53:00,56.7,48.5,29.20,West,270,0.0,0.0,74,0.00,,---,0.00,VWS V14.01,2013-05-08 11:53:00,
2013-05-08 06:58:00,58.1,49.5,29.20,West,270,0.0,0.0,73,0.00,,---,0.00,VWS V14.01,2013-05-08 11:58:00,
2013-05-08 07:03:00,58.8,50.2,29.20,West,270,0.0,0.0,73,0.00,,---,0.00,VWS V14.01,2013-05-08 12:03:00,
2013-05-08 07:08:00,59.5,50.5,29.20,West,270,0.0,0.0,72,0.00,,---,0.00,VWS V14.01,2013-05-08 12:08:00,
2013-05-08 07:13:00,61.0,51.5,29.20,East,90,0.0,2.0,71,0.00,,---,0.00,VWS V14.01,2013-05-08 12:13:00,
2013-05-08 07:18:00,62.6,52.3,29.20,East,90,0.0,0.0,69,0.00,,---,0.00,VWS V14.01,2013-05-08 12:18:00,
2013-05-08 07:23:00,63.5,52.8,29.20,East,90,0.0,0.0,68,0.00,,---,0.00,VWS V14.01,2013-05-08 12:23:00,
2013-05-08 07:28:00,64.2,53.0,29.20,East,90,0.0,0.0,67,0.00,,---,0.00,VWS V14.01,2013-05-08 12:28:00,
2013-05-08 07:33:00,64.8,52.3,29.20,SE,135,0.0,0.0,64,0.00,,---,0.00,VWS V14.01,2013-05-08 12:33:00,
2013-05-08 07:38:00,65.1,52.2,29.20,SE,135,0.0,0.0,63,0.00,,---,0.00,VWS V14.01,2013-05-08 12:38:00,
2013-05-08 07:43:00,65.7,52.3,29.20,SSE,158,0.0,0.0,62,0.00,,---,0.00,VWS V14.01,2013-05-08 12:43:00,
2013-05-08 07:48:00,66.2,51.9,29.20,East,90,0.0,0.0,60,0.00,,---,0.00,VWS V14.01,2013-05-08 12:48:00,
2013-05-08 07:53:00,66.4,51.6,29.20,SE,135,0.0,0.0,59,0.00,,---,0.00,VWS V14.01,2013-05-08 12:53:00,
2013-05-08 07:58:00,66.7,51.5,29.20,ESE,112,0.0,0.0,58,0.00,,---,0.00,VWS V14.01,2013-05-08 12:58:00,
2013-05-08 08:03:00,66.9,51.2,29.20,SE,135,0.0,0.0,57,0.00,,---,0.00,VWS V14.01,2013-05-08 13:03:00,
2013-05-08 08:08:00,67.3,51.1,29.20,ENE,68,0.0,0.9,56,0.00,,---,0.00,VWS V14.01,2013-05-08 13:08:00,
2013-05-08 08:13:00,67.3,51.1,29.20,NE,45,2.5,2.5,56,0.00,,---,0.00,VWS V14.01,2013-05-08 13:13:00,
2013-05-08 08:18:00,67.6,51.9,29.20,East,90,0.0,0.0,57,0.00,,---,0.00,VWS V14.01,2013-05-08 13:18:00,
2013-05-08 08:23:00,67.6,51.4,29.20,East,90,1.1,1.1,56,0.00,,---,0.00,VWS V14.01,2013-05-08 13:23:00,
2013-05-08 08:28:00,68.0,51.7,29.20,East,90,3.6,3.6,56,0.00,,---,0.00,VWS V14.01,2013-05-08 13:28:00,
2013-05-08 08:33:00,68.0,51.7,29.20,ESE,112,1.3,1.3,56,0.00,,---,0.00,VWS V14.01,2013-05-08 13:33:00,
2013-05-08 08:38:00,68.5,52.2,29.20,SSE,158,0.0,2.7,56,0.00,,---,0.00,VWS V14.01,2013-05-08 13:38:00,
2013-05-08 08:43:00,68.9,52.6,29.20,ESE,112,2.0,2.0,56,0.00,,---,0.00,VWS V14.01,2013-05-08 13:43:00,
2013-05-08 08:48:00,69.4,53.6,29.20,ESE,112,0.0,0.0,57,0.00,,---,0.00,VWS V14.01,2013-05-08 13:48:00,
2013-05-08 08:53:00,69.8,53.4,29.20,South,180,2.0,2.0,56,0.00,,---,0.00,VWS V14.01,2013-05-08 13:53:00,
2013-05-08 08:58:00,70.0,53.1,29.20,NNE,22,0.9,1.6,55,0.00,,---,0.00,VWS V14.01,2013-05-08 13:58:00,
2013-05-08 09:03:00,70.2,53.3,29.20,SW,225,2.9,2.9,55,0.00,,---,0.00,VWS V14.01,2013-05-08 14:03:00,
2013-05-08 09:08:00,70.5,53.1,29.20,North,0,0.0,0.0,54,0.00,,---,0.00,VWS V14.01,2013-05-08 14:08:00,
2013-05-08 09:13:00,71.4,53.9,29.20,ENE,68,1.1,1.1,54,0.00,,---,0.00,VWS V14.01,2013-05-08 14:13:00,
2013-05-08 09:18:00,71.4,53.9,29.20,SSW,202,0.0,0.0,54,0.00,,---,0.00,VWS V14.01,2013-05-08 14:18:00,
2013-05-08 09:23:00,71.4,53.9,29.20,NNE,22,0.0,0.0,54,0.00,,---,0.00,VWS V14.01,2013-05-08 14:23:00,
2013-05-08 09:28:00,71.4,53.9,29.20,West,270,0.0,0.0,54,0.00,,---,0.00,VWS V14.01,2013-05-08 14:28:00,
2013-05-08 09:33:00,72.5,54.4,29.20,ESE,112,0.9,2.2,53,0.00,,---,0.00,VWS V14.01,2013-05-08 14:33:00,
2013-05-08 09:38:00,72.5,53.9,29.20,NNW,338,2.5,2.5,52,0.00,,---,0.00,VWS V14.01,2013-05-08 14:38:00,
2013-05-08 09:43:00,72.5,53.9,29.20,ENE,68,2.9,2.9,52,0.00,,---,0.00,VWS V14.01,2013-05-08 14:43:00,
2013-05-08 09:48:00,73.0,54.4,29.20,SW,225,2.7,2.7,52,0.00,,---,0.00,VWS V14.01,2013-05-08 14:48:00,
2013-05-08 09:53:00,73.6,54.9,29.20,SSE,158,0.0,2.7,52,0.00,,---,0.00,VWS V14.01,2013-05-08 14:53:00,
2013-05-08 09:58:00,73.6,54.9,29.20,South,180,2.0,2.0,52,0.00,,---,0.00,VWS V14.01,2013-05-08 14:58:00,
2013-05-08 10:03:00,73.6,54.9,29.20,South,180,4.3,6.3,52,0.00,,---,0.00,VWS V14.01,2013-05-08 15:03:00,
2013-05-08 10:08:00,73.6,54.9,29.20,SW,225,0.0,0.0,52,0.00,,---,0.00,VWS V14.01,2013-05-08 15:08:00,
2013-05-08 10:13:00,73.6,54.9,29.20,SW,225,3.6,3.6,52,0.00,,---,0.00,VWS V14.01,2013-05-08 15:13:00,
2013-05-08 10:18:00,73.6,54.9,29.20,NW,315,0.0,0.0,52,0.00,,---,0.00,VWS V14.01,2013-05-08 15:18:00,
2013-05-08 10:23:00,75.7,54.7,29.20,North,0,0.0,0.0,48,0.00,,---,0.00,VWS V14.01,2013-05-08 15:23:00,
2013-05-08 10:28:00,75.7,54.7,29.20,SW,225,0.0,0.0,48,0.00,,---,0.00,VWS V14.01,2013-05-08 15:28:00,
2013-05-08 10:33:00,75.7,54.7,29.23,WSW,248,2.7,3.8,48,0.00,,---,0.00,VWS V14.01,2013-05-08 15:33:00,
2013-05-08 10:38:00,75.7,54.7,29.23,South,180,3.1,3.8,48,0.00,,---,0.00,VWS V14.01,2013-05-08 15:38:00,
2013-05-08 10:43:00,75.7,54.7,29.23,SSW,202,0.0,1.6,48,0.00,,---,0.00,VWS V14.01,2013-05-08 15:43:00,
2013-05-08 10:48:00,75.7,54.7,29.23,North,0,0.0,0.0,48,0.00,,---,0.00,VWS V14.01,2013-05-08 15:48:00,
2013-05-08 10:53:00,75.7,54.7,29.23,WSW,248,2.0,2.0,48,0.00,,---,0.00,VWS V14.01,2013-05-08 15:53:00,
2013-05-08 10:58:00,75.7,54.7,29.23,West,270,2.5,3.1,48,0.00,,---,0.00,VWS V14.01,2013-05-08 15:58:00,
2013-05-08 11:03:00,75.7,54.7,29.23,NNE,22,0.0,0.0,48,0.00,,---,0.00,VWS V14.01,2013-05-08 16:03:00,
2013-05-08 11:08:00,75.7,54.7,29.23,SSW,202,2.7,2.9,48,0.00,,---,0.00,VWS V14.01,2013-05-08 16:08:00,
2013-05-08 11:13:00,78.8,55.1,29.20,SSW,202,2.0,3.4,44,0.00,,---,0.00,VWS V14.01,2013-05-08 16:13:00,
2013-05-08 11:18:00,78.6,54.3,29.23,SW,225,0.0,0.0,43,0.00,,---,0.00,VWS V14.01,2013-05-08 16:18:00,
2013-05-08 11:23:00,78.6,54.3,29.23,SSE,158,1.3,4.7,43,0.00,,---,0.00,VWS V14.01,2013-05-08 16:23:00,
2013-05-08 11:28:00,79.2,54.1,29.23,ESE,112,2.7,2.7,42,0.00,,---,0.00,VWS V14.01,2013-05-08 16:28:00,
2013-05-08 11:33:00,79.2,54.1,29.23,SW,225,2.5,2.5,42,0.00,,---,0.00,VWS V14.01,2013-05-08 16:33:00,
2013-05-08 11:38:00,79.2,54.1,29.23,West,270,3.4,3.4,42,0.00,,---,0.00,VWS V14.01,2013-05-08 16:38:00,
2013-05-08 11:43:00,79.5,54.4,29.23,South,180,2.9,3.4,42,0.00,,---,0.00,VWS V14.01,2013-05-08 16:43:00,
2013-05-08 11:48:00,79.5,54.4,29.20,WSW,248,3.1,3.1,42,0.00,,---,0.00,VWS V14.01,2013-05-08 16:48:00,
2013-05-08 11:53:00,79.9,54.8,29.20,SSE,158,0.9,2.9,42,0.00,,---,0.00,VWS V14.01,2013-05-08 16:53:00,
2013-05-08 11:58:00,80.1,53.6,29.20,NNW,338,2.7,2.7,40,0.00,,---,0.00,VWS V14.01,2013-05-08 16:58:00,
2013-05-08 12:03:00,79.7,53.3,29.20,West,270,1.1,2.5,40,0.00,,---,0.00,VWS V14.01,2013-05-08 17:03:00,
2013-05-08 12:08:00,79.7,53.3,29.20,NNE,22,1.3,1.3,40,0.00,,---,0.00,VWS V14.01,2013-05-08 17:08:00,
2013-05-08 12:13:00,80.2,53.1,29.20,WNW,292,0.9,0.9,39,0.00,,---,0.00,VWS V14.01,2013-05-08 17:13:00,
2013-05-08 12:18:00,80.2,51.6,29.20,WNW,292,2.7,3.8,37,0.00,,---,0.00,VWS V14.01,2013-05-08 17:18:00,
2013-05-08 12:23:00,80.2,51.6,29.20,NW,315,1.1,1.3,37,0.00,,---,0.00,VWS V14.01,2013-05-08 17:23:00,
2013-05-08 12:28:00,80.4,52.5,29.20,NNW,338,3.1,3.1,38,0.00,,---,0.00,VWS V14.01,2013-05-08 17:28:00,
2013-05-08 12:33:00,80.4,52.5,29.20,NE,45,0.0,0.0,38,0.00,,---,0.00,VWS V14.01,2013-05-08 17:33:00,
2013-05-08 12:38:00,80.6,50.5,29.20,NNE,22,3.1,3.4,35,0.00,,---,0.00,VWS V14.01,2013-05-08 17:38:00,
2013-05-08 12:43:00,80.6,50.5,29.20,West,270,2.5,5.8,35,0.00,,---,0.00,VWS V14.01,2013-05-08 17:43:00,
2013-05-08 12:48:00,80.6,50.5,29.20,NW,315,3.8,4.0,35,0.00,,---,0.00,VWS V14.01,2013-05-08 17:48:00,
2013-05-08 12:53:00,81.3,51.1,29.20,WNW,292,3.1,4.7,35,0.00,,---,0.00,VWS V14.01,2013-05-08 17:53:00,
2013-05-08 12:58:00,81.1,50.1,29.20,SW,225,3.1,4.9,34,0.00,,---,0.00,VWS V14.01,2013-05-08 17:58:00,
2013-05-08 13:03:00,81.9,52.3,29.20,SSW,202,1.3,1.3,36,0.00,,---,0.00,VWS V14.01,2013-05-08 18:03:00,
2013-05-08 13:08:00,81.9,52.3,29.20,SW,225,1.3,6.0,36,0.00,,---,0.00,VWS V14.01,2013-05-08 18:08:00,
2013-05-08 13:13:00,81.9,52.3,29.20,South,180,2.0,3.4,36,0.00,,---,0.00,VWS V14.01,2013-05-08 18:13:00,
2013-05-08 13:18:00,82.2,52.6,29.20,WSW,248,2.9,2.9,36,0.00,,---,0.00,VWS V14.01,2013-05-08 18:18:00,
2013-05-08 13:23:00,82.2,52.6,29.20,SSE,158,3.1,5.4,36,0.00,,---,0.00,VWS V14.01,2013-05-08 18:23:00,
2013-05-08 13:28:00,82.2,52.6,29.20,SW,225,3.8,3.8,36,0.00,,---,0.00,VWS V14.01,2013-05-08 18:28:00,
2013-05-08 13:33:00,82.2,52.6,29.20,South,180,1.3,1.3,36,0.00,,---,0.00,VWS V14.01,2013-05-08 18:33:00,
2013-05-08 13:38:00,82.2,52.6,29.20,East,90,0.0,0.9,36,0.00,,---,0.00,VWS V14.01,2013-05-08 18:38:00,
2013-05-08 13:43:00,82.2,52.6,29.20,East,90,0.9,2.0,36,0.00,,---,0.00,VWS V14.01,2013-05-08 18:43:00,
2013-05-08 13:48:00,82.4,51.2,29.20,WSW,248,2.2,2.7,34,0.00,,---,0.00,VWS V14.01,2013-05-08 18:48:00,
2013-05-08 13:53:00,82.6,51.4,29.20,West,270,2.7,2.7,34,0.00,,---,0.00,VWS V14.01,2013-05-08 18:53:00,
2013-05-08 13:58:00,83.7,52.3,29.20,SW,225,6.0,6.0,34,0.00,,---,0.00,VWS V14.01,2013-05-08 18:58:00,
2013-05-08 14:03:00,83.8,51.7,29.20,SSE,158,4.3,4.3,33,0.00,,---,0.00,VWS V14.01,2013-05-08 19:03:00,
2013-05-08 14:08:00,83.7,50.7,29.20,ENE,68,0.0,0.0,32,0.00,,---,0.00,VWS V14.01,2013-05-08 19:08:00,
2013-05-08 14:13:00,83.7,50.7,29.20,WSW,248,2.7,2.7,32,0.00,,---,0.00,VWS V14.01,2013-05-08 19:13:00,
2013-05-08 14:18:00,83.7,50.7,29.20,SW,225,2.9,2.9,32,0.00,,---,0.00,VWS V14.01,2013-05-08 19:18:00,
2013-05-08 14:23:00,83.7,50.7,29.20,WSW,248,3.8,3.8,32,0.00,,---,0.00,VWS V14.01,2013-05-08 19:23:00,
2013-05-08 14:28:00,82.9,51.7,29.20,SW,225,6.5,6.5,34,0.00,,---,0.00,VWS V14.01,2013-05-08 19:28:00,
2013-05-08 14:33:00,83.3,52.0,29.20,NW,315,2.9,2.9,34,0.00,,---,0.00,VWS V14.01,2013-05-08 19:33:00,
2013-05-08 14:38:00,83.1,51.9,29.20,West,270,1.3,2.9,34,0.00,,---,0.00,VWS V14.01,2013-05-08 19:38:00,
2013-05-08 14:43:00,82.6,49.8,29.20,NE,45,4.3,4.3,32,0.00,,---,0.00,VWS V14.01,2013-05-08 19:43:00,
2013-05-08 14:48:00,82.6,50.6,29.20,South,180,2.7,2.7,33,0.00,,---,0.00,VWS V14.01,2013-05-08 19:48:00,
2013-05-08 14:53:00,83.3,52.0,29.20,SSE,158,3.1,3.4,34,0.00,,---,0.00,VWS V14.01,2013-05-08 19:53:00,
2013-05-08 14:58:00,83.3,51.2,29.20,SW,225,4.3,4.3,33,0.00,,---,0.00,VWS V14.01,2013-05-08 19:58:00,
2013-05-08 15:03:00,82.9,50.9,29.20,SW,225,3.4,8.5,33,0.00,,---,0.00,VWS V14.01,2013-05-08 20:03:00,
2013-05-08 15:08:00,82.4,49.6,29.20,SSW,202,0.0,0.0,32,0.00,,---,0.00,VWS V14.01,2013-05-08 20:08:00,
2013-05-08 15:13:00,82.6,50.6,29.20,SW,225,6.5,6.5,33,0.00,,---,0.00,VWS V14.01,2013-05-08 20:13:00,
2013-05-08 15:18:00,82.6,49.8,29.20,West,270,6.3,6.3,32,0.00,,---,0.00,VWS V14.01,2013-05-08 20:18:00,
2013-05-08 15:23:00,82.6,49.8,29.20,NW,315,0.0,2.2,32,0.00,,---,0.00,VWS V14.01,2013-05-08 20:23:00,
2013-05-08 15:28:00,82.6,49.8,29.20,West,270,7.2,7.2,32,0.00,,---,0.00,VWS V14.01,2013-05-08 20:28:00,
2013-05-08 15:33:00,82.8,49.9,29.20,SW,225,1.6,1.6,32,0.00,,---,0.00,VWS V14.01,2013-05-08 20:33:00,
2013-05-08 15:38:00,82.4,48.8,29.20,NW,315,0.0,2.9,31,0.00,,---,0.00,VWS V14.01,2013-05-08 20:38:00,
2013-05-08 15:43:00,82.6,48.9,29.20,NNW,338,0.0,0.0,31,0.00,,---,0.00,VWS V14.01,2013-05-08 20:43:00,
2013-05-08 15:48:00,82.4,49.6,29.17,West,270,2.7,3.6,32,0.00,,---,0.00,VWS V14.01,2013-05-08 20:48:00,
2013-05-08 15:53:00,82.4,48.8,29.17,NW,315,0.0,1.3,31,0.00,,---,0.00,VWS V14.01,2013-05-08 20:53:00,
2013-05-08 15:59:00,82.4,49.6,29.17,SW,225,2.7,5.8,32,0.00,,---,0.00,VWS V14.01,2013-05-08 20:59:00,
2013-05-08 16:04:00,82.0,49.3,29.17,SSW,202,0.0,0.9,32,0.00,,---,0.00,VWS V14.01,2013-05-08 21:04:00,
2013-05-08 16:09:00,81.9,49.1,29.17,SW,225,1.3,3.1,32,0.00,,---,0.00,VWS V14.01,2013-05-08 21:09:00,
2013-05-08 16:14:00,81.7,49.0,29.17,SW,225,3.1,3.1,32,0.00,,---,0.00,VWS V14.01,2013-05-08 21:14:00,
2013-05-08 16:19:00,81.7,49.0,29.17,SW,225,2.9,2.9,32,0.00,,---,0.00,VWS V14.01,2013-05-08 21:19:00,
2013-05-08 16:24:00,81.7,49.0,29.17,NW,315,0.0,0.0,32,0.00,,---,0.00,VWS V14.01,2013-05-08 21:24:00,
2013-05-08 16:29:00,81.5,48.8,29.17,SSW,202,2.5,3.6,32,0.00,,---,0.00,VWS V14.01,2013-05-08 21:29:00,
2013-05-08 16:34:00,81.5,48.8,29.17,SSW,202,0.0,0.0,32,0.00,,---,0.00,VWS V14.01,2013-05-08 21:34:00,
2013-05-08 16:39:00,81.3,49.5,29.17,SW,225,2.5,2.5,33,0.00,,---,0.00,VWS V14.01,2013-05-08 21:39:00,
2013-05-08 16:44:00,81.1,48.5,29.17,SW,225,3.4,3.6,32,0.00,,---,0.00,VWS V14.01,2013-05-08 21:44:00,
2013-05-08 16:49:00,80.8,48.2,29.17,SSW,202,2.0,2.0,32,0.00,,---,0.00,VWS V14.01,2013-05-08 21:49:00,
2013-05-08 16:54:00,80.8,48.2,29.17,SW,225,2.0,2.5,32,0.00,,---,0.00,VWS V14.01,2013-05-08 21:54:00,
2013-05-08 16:59:00,80.8,48.2,29.17,SW,225,3.1,3.1,32,0.00,,---,0.00,VWS V14.01,2013-05-08 21:59:00,
2013-05-08 17:04:00,80.6,48.0,29.17,SW,225,2.5,2.5,32,0.00,,---,0.00,VWS V14.01,2013-05-08 22:04:00,
2013-05-08 17:09:00,80.6,48.0,29.17,SSW,202,2.9,2.9,32,0.00,,---,0.00,VWS V14.01,2013-05-08 22:09:00,
2013-05-08 17:15:00,80.6,48.0,29.17,WSW,248,4.3,4.3,32,0.00,,---,0.00,VWS V14.01,2013-05-08 22:15:00,
2013-05-08 17:20:00,80.6,48.0,29.17,WSW,248,1.6,4.3,32,0.00,,---,0.00,VWS V14.01,2013-05-08 22:20:00,
2013-05-08 17:25:00,80.4,47.9,29.17,SSW,202,6.0,6.0,32,0.00,,---,0.00,VWS V14.01,2013-05-08 22:25:00,
2013-05-08 17:30:00,80.1,47.6,29.17,WSW,248,1.3,2.0,32,0.00,,---,0.00,VWS V14.01,2013-05-08 22:30:00,
2013-05-08 17:35:00,79.9,47.4,29.17,West,270,1.6,3.6,32,0.00,,---,0.00,VWS V14.01,2013-05-08 22:35:00,
2013-05-08 17:40:00,80.1,47.6,29.17,West,270,1.1,1.3,32,0.00,,---,0.00,VWS V14.01,2013-05-08 22:40:00,
2013-05-08 17:45:00,80.2,48.5,29.17,SW,225,2.7,2.7,33,0.00,,---,0.00,VWS V14.01,2013-05-08 22:45:00,
2013-05-08 17:50:00,80.2,48.5,29.17,WNW,292,2.9,3.6,33,0.00,,---,0.00,VWS V14.01,2013-05-08 22:50:00,
2013-05-08 17:55:00,80.1,47.6,29.17,SSW,202,2.0,2.0,32,0.00,,---,0.00,VWS V14.01,2013-05-08 22:55:00,
2013-05-08 18:00:00,80.1,47.6,29.17,SW,225,0.9,1.6,32,0.00,,---,0.00,VWS V14.01,2013-05-08 23:00:00,
2013-05-08 18:05:00,80.1,47.6,29.17,SW,225,2.5,3.6,32,0.00,,---,0.00,VWS V14.01,2013-05-08 23:05:00,
2013-05-08 18:10:00,79.9,47.4,29.17,SSW,202,3.6,3.6,32,0.00,,---,0.00,VWS V14.01,2013-05-08 23:10:00,
2013-05-08 18:15:00,79.7,47.3,29.17,West,270,3.4,3.6,32,0.00,,---,0.00,VWS V14.01,2013-05-08 23:15:00,
2013-05-08 18:20:00,79.9,47.4,29.17,South,180,3.4,3.4,32,0.00,,---,0.00,VWS V14.01,2013-05-08 23:20:00,
2013-05-08 18:25:00,79.9,47.4,29.17,SSW,202,3.1,3.4,32,0.00,,---,0.00,VWS V14.01,2013-05-08 23:25:00,
2013-05-08 18:30:00,79.9,47.4,29.17,SW,225,1.3,2.5,32,0.00,,---,0.00,VWS V14.01,2013-05-08 23:30:00,
2013-05-08 18:35:00,79.7,47.3,29.17,West,270,2.0,2.0,32,0.00,,---,0.00,VWS V14.01,2013-05-08 23:35:00,
2013-05-08 18:40:00,79.5,46.3,29.17,West,270,0.0,0.0,31,0.00,,---,0.00,VWS V14.01,2013-05-08 23:40:00,
2013-05-08 18:45:00,79.3,46.1,29.17,North,0,0.0,0.0,31,0.00,,---,0.00,VWS V14.01,2013-05-08 23:45:00,
2013-05-08 18:50:00,79.0,45.8,29.17,West,270,0.0,0.0,31,0.00,,---,0.00,VWS V14.01,2013-05-08 23:50:00,
2013-05-08 18:55:00,78.6,46.3,29.17,West,270,0.0,0.0,32,0.00,,---,0.00,VWS V14.01,2013-05-08 23:55:00,
2013-05-08 19:00:00,78.3,46.0,29.17,South,180,0.0,0.0,32,0.00,,---,0.00,VWS V14.01,2013-05-09 00:00:00,
2013-05-08 19:05:00,77.7,45.5,29.17,South,180,0.0,0.0,32,0.00,,---,0.00,VWS V14.01,2013-05-09 00:05:00,
2013-05-08 19:10:00,77.2,45.1,29.17,South,180,0.0,0.0,32,0.00,,---,0.00,VWS V14.01,2013-05-09 00:10:00,
2013-05-08 19:15:00,76.6,45.4,29.17,South,180,0.0,0.0,33,0.00,,---,0.00,VWS V14.01,2013-05-09 00:15:00,
2013-05-08 19:20:00,76.3,45.1,29.17,South,180,0.0,0.0,33,0.00,,---,0.00,VWS V14.01,2013-05-09 00:20:00,
2013-05-08 19:25:00,75.9,44.8,29.17,South,180,0.0,0.0,33,0.00,,---,0.00,VWS V14.01,2013-05-09 00:25:00,
2013-05-08 19:30:00,75.4,44.3,29.17,South,180,0.0,0.0,33,0.00,,---,0.00,VWS V14.01,2013-05-09 00:30:00,
2013-05-08 19:35:00,74.8,44.6,29.17,South,180,0.0,0.0,34,0.00,,---,0.00,VWS V14.01,2013-05-09 00:35:00,
2013-05-08 19:40:00,74.3,44.1,29.17,South,180,0.0,0.0,34,0.00,,---,0.00,VWS V14.01,2013-05-09 00:40:00,
2013-05-08 19:46:00,73.8,43.7,29.17,South,180,0.0,0.0,34,0.00,,---,0.00,VWS V14.01,2013-05-09 00:46:00,
2013-05-08 19:51:00,73.4,43.3,29.17,South,180,0.0,0.0,34,0.00,,---,0.00,VWS V14.01,2013-05-09 00:51:00,
2013-05-08 19:56:00,72.9,42.9,29.17,South,180,0.0,0.0,34,0.00,,---,0.00,VWS V14.01,2013-05-09 00:56:00,
2013-05-08 20:01:00,72.7,43.5,29.17,SE,135,0.0,0.0,35,0.00,,---,0.00,VWS V14.01,2013-05-09 01:01:00,
2013-05-08 20:06:00,72.3,43.2,29.17,ESE,112,0.0,0.0,35,0.00,,---,0.00,VWS V14.01,2013-05-09 01:06:00,
2013-05-08 20:11:00,72.0,42.8,29.17,East,90,0.0,0.0,35,0.00,,---,0.00,VWS V14.01,2013-05-09 01:11:00,
2013-05-08 20:16:00,71.4,43.1,29.17,East,90,0.0,0.0,36,0.00,,---,0.00,VWS V14.01,2013-05-09 01:16:00,
2013-05-08 20:21:00,71.1,42.8,29.17,ENE,68,0.0,0.0,36,0.00,,---,0.00,VWS V14.01,2013-05-09 01:21:00,
2013-05-08 20:26:00,70.7,42.5,29.17,ENE,68,0.0,0.0,36,0.00,,---,0.00,VWS V14.01,2013-05-09 01:26:00,
2013-05-08 20:31:00,70.5,42.3,29.17,ENE,68,0.0,0.0,36,0.00,,---,0.00,VWS V14.01,2013-05-09 01:31:00,
2013-05-08 20:36:00,70.2,42.0,29.17,ENE,68,0.0,0.0,36,0.00,,---,0.00,VWS V14.01,2013-05-09 01:36:00,
2013-05-08 20:41:00,70.0,41.8,29.17,ENE,68,0.0,0.0,36,0.00,,---,0.00,VWS V14.01,2013-05-09 01:41:00,
2013-05-08 20:46:00,69.8,41.7,29.17,ENE,68,0.0,0.0,36,0.00,,---,0.00,VWS V14.01,2013-05-09 01:46:00,
2013-05-08 20:51:00,69.6,42.2,29.17,ENE,68,0.0,0.0,37,0.00,,---,0.00,VWS V14.01,2013-05-09 01:51:00,
2013-05-08 20:56:00,69.3,41.9,29.17,ENE,68,0.0,0.0,37,0.00,,---,0.00,VWS V14.01,2013-05-09 01:56:00,
2013-05-08 21:01:00,69.3,42.6,29.17,ENE,68,0.0,0.0,38,0.00,,---,0.00,VWS V14.01,2013-05-09 02:01:00,
2013-05-08 21:06:00,69.1,42.4,29.17,ENE,68,0.0,0.0,38,0.00,,---,0.00,VWS V14.01,2013-05-09 02:06:00,
2013-05-08 21:11:00,68.7,42.8,29.17,ENE,68,0.0,0.0,39,0.00,,---,0.00,VWS V14.01,2013-05-09 02:11:00,
2013-05-08 21:16:00,68.5,42.6,29.17,ENE,68,0.0,0.0,39,0.00,,---,0.00,VWS V14.01,2013-05-09 02:16:00,
2013-05-08 21:21:00,68.4,43.1,29.17,East,90,0.0,0.0,40,0.00,,---,0.00,VWS V14.01,2013-05-09 02:21:00,
2013-05-08 21:26:00,68.4,43.1,29.17,East,90,0.0,0.0,40,0.00,,---,0.00,VWS V14.01,2013-05-09 02:26:00,
2013-05-08 21:31:00,68.2,43.6,29.17,SE,135,0.0,0.0,41,0.00,,---,0.00,VWS V14.01,2013-05-09 02:31:00,
2013-05-08 21:36:00,68.2,43.6,29.17,ESE,112,0.0,0.0,41,0.00,,---,0.00,VWS V14.01,2013-05-09 02:36:00,
2013-05-08 21:41:00,68.0,44.1,29.17,East,90,0.0,0.0,42,0.00,,---,0.00,VWS V14.01,2013-05-09 02:41:00,
2013-05-08 21:46:00,68.0,44.7,29.17,East,90,0.0,0.0,43,0.00,,---,0.00,VWS V14.01,2013-05-09 02:46:00,
2013-05-08 21:51:00,67.8,44.5,29.17,East,90,0.0,0.0,43,0.00,,---,0.00,VWS V14.01,2013-05-09 02:51:00,
2013-05-08 21:56:00,67.6,45.0,29.17,ESE,112,0.0,0.0,44,0.00,,---,0.00,VWS V14.01,2013-05-09 02:56:00,
2013-05-08 22:01:00,67.5,44.2,29.17,ESE,112,0.0,0.0,43,0.00,,---,0.00,VWS V14.01,2013-05-09 03:01:00,
2013-05-08 22:06:00,67.3,44.7,29.17,ESE,112,0.0,0.0,44,0.00,,---,0.00,VWS V14.01,2013-05-09 03:06:00,
2013-05-08 22:11:00,66.9,44.3,29.17,ESE,112,0.0,0.0,44,0.00,,---,0.00,VWS V14.01,2013-05-09 03:11:00,
2013-05-08 22:16:00,66.7,44.2,29.17,South,180,0.0,0.0,44,0.00,,---,0.00,VWS V14.01,2013-05-09 03:16:00,
2013-05-08 22:21:00,66.6,44.0,29.17,East,90,0.0,0.0,44,0.00,,---,0.00,VWS V14.01,2013-05-09 03:21:00,
2013-05-08 22:26:00,66.6,44.0,29.17,ESE,112,0.0,0.0,44,0.00,,---,0.00,VWS V14.01,2013-05-09 03:26:00,
2013-05-08 22:31:00,66.6,44.0,29.17,ESE,112,0.0,0.0,44,0.00,,---,0.00,VWS V14.01,2013-05-09 03:31:00,
2013-05-08 22:36:00,66.4,44.4,29.14,ESE,112,0.0,0.0,45,0.00,,---,0.00,VWS V14.01,2013-05-09 03:36:00,
2013-05-08 22:41:00,66.2,44.2,29.14,South,180,0.0,0.0,45,0.00,,---,0.00,VWS V14.01,2013-05-09 03:41:00,
2013-05-08 22:46:00,66.0,44.7,29.14,West,270,2.9,4.3,46,0.00,,---,0.00,VWS V14.01,2013-05-09 03:46:00,
2013-05-08 22:51:00,66.4,44.4,29.14,South,180,0.0,1.6,45,0.00,,---,0.00,VWS V14.01,2013-05-09 03:51:00,
2013-05-08 22:56:00,66.6,44.6,29.14,SSE,158,0.0,0.0,45,0.00,,---,0.00,VWS V14.01,2013-05-09 03:56:00,
2013-05-08 23:01:00,66.4,44.4,29.14,SSW,202,0.0,0.0,45,0.00,,---,0.00,VWS V14.01,2013-05-09 04:01:00,
2013-05-08 23:03:00,66.2,44.8,29.14,East,90,0.0,0.0,46,0.00,,---,0.00,VWS V14.01,2013-05-09 04:03:00,
2013-05-08 23:08:00,66.4,45.0,29.14,East,90,0.0,0.0,46,0.00,,---,0.00,VWS V14.01,2013-05-09 04:08:00,
2013-05-08 23:13:00,66.2,44.8,29.14,ENE,68,0.0,0.0,46,0.00,,---,0.00,VWS V14.01,2013-05-09 04:13:00,
2013-05-08 23:18:00,66.2,44.8,29.14,South,180,0.0,0.0,46,0.00,,---,0.00,VWS V14.01,2013-05-09 04:18:00,
2013-05-08 23:23:00,66.0,45.2,29.14,South,180,0.0,0.0,47,0.00,,---,0.00,VWS V14.01,2013-05-09 04:23:00,
2013-05-08 23:28:00,65.8,45.1,29.14,East,90,0.0,0.0,47,0.00,,---,0.00,VWS V14.01,2013-05-09 04:28:00,
2013-05-08 23:33:00,65.8,45.6,29.14,East,90,0.0,0.0,48,0.00,,---,0.00,VWS V14.01,2013-05-09 04:33:00,
2013-05-08 23:38:00,65.8,45.6,29.14,East,90,0.0,0.0,48,0.00,,---,0.00,VWS V14.01,2013-05-09 04:38:00,
2013-05-08 23:43:00,65.8,45.6,29.14,SSE,158,0.0,0.0,48,0.00,,---,0.00,VWS V14.01,2013-05-09 04:43:00,
2013-05-08 23:49:00,65.8,46.2,29.14,South,180,0.0,0.0,49,0.00,,---,0.00,VWS V14.01,2013-05-09 04:49:00,
2013-05-08 23:54:00,65.8,46.2,29.14,South,180,0.0,0.0,49,0.00,,---,0.00,VWS V14.01,2013-05-09 04:54:00,
2013-05-08 23:59:00,66.0,46.9,29.14,South,180,0.0,0.0,50,0.00,,---,0.00,VWS V14.01,2013-05-09 04:59:00,